This is the latest recevied weather packets stored in our database for station/object K6CED. If no packets are shown the sender has not sent any weather packets the latest 10 day(s).
| Time | Temp. | Humidity | Pressure | Rain* | Wind** | Luminosity | Snow |
|---|---|---|---|---|---|---|---|
| 1788637933 | 32.78° C | 19% | 1016.5 hPa | 0 mm | - | 719 W/m² | - |
| 1788637628 | 32.78° C | 19% | 1016.4 hPa | 0 mm | - | 760 W/m² | - |
| 1788637328 | 32.78° C | 17% | 1016.7 hPa | 0 mm | - | 752 W/m² | - |
| 1788637022 | 32.22° C | 18% | 1016.9 hPa | 0 mm | - | 785 W/m² | - |
| 1788636717 | 32.78° C | 17% | 1016.7 hPa | 0 mm | - | 753 W/m² | - |
| 1788636413 | 32.22° C | 17% | 1017 hPa | 0 mm | - | 758 W/m² | - |
| 1788636109 | 32.78° C | 17% | 1017.2 hPa | 0 mm | - | 788 W/m² | - |
| 1788635808 | 32.22° C | 17% | 1017 hPa | 0 mm | - | 866 W/m² | - |
| 1788635506 | 32.22° C | 17% | 1017.1 hPa | 0 mm | - | 825 W/m² | - |
| 1788635199 | 32.22° C | 17% | 1017 hPa | 0 mm | - | 401 W/m² | - |
| 1788634899 | 32.22° C | 18% | 1017.1 hPa | 0 mm | - | 1142 W/m² | - |
| 1788634598 | 32.22° C | 18% | 1017 hPa | 0 mm | - | 622 W/m² | - |
| 1788634298 | 31.67° C | 18% | 1017.1 hPa | 0 mm | - | 977 W/m² | - |
| 1788633992 | 31.67° C | 19% | 1017.2 hPa | 0 mm | - | 909 W/m² | - |
| 1788633691 | 31.67° C | 22% | 1017.3 hPa | 0 mm | - | 605 W/m² | - |
| 1788633391 | 31.67° C | 20% | 1017.1 hPa | 0 mm | - | 765 W/m² | - |
| 1788633086 | 31.11° C | 23% | 1017.2 hPa | 0 mm | - | 599 W/m² | - |
| 1788632786 | 30.56° C | 24% | 1017.2 hPa | 0 mm | - | 666 W/m² | - |
| 1788632485 | 30° C | 25% | 1017.2 hPa | 0 mm | - | 942 W/m² | - |
| 1788632180 | 30° C | 26% | 1017.5 hPa | 0 mm | - | 401 W/m² | - |
| 1788631879 | 30° C | 26% | 1017.4 hPa | 0 mm | - | 382 W/m² | - |
| 1788631574 | 29.44° C | 25% | 1017.5 hPa | 0 mm | - | 448 W/m² | - |
| 1788631270 | 29.44° C | 26% | 1017.3 hPa | 0 mm | - | 610 W/m² | - |
| 1788630969 | 28.89° C | 27% | 1017.6 hPa | 0 mm | - | 490 W/m² | - |
| 1788630664 | 28.89° C | 27% | 1017.5 hPa | 0 mm | - | 368 W/m² | - |
* Rain latest hour (hover to see other rain measurements)
** Current wind speed in m/s (hover to see current wind gust speed)